SCP
0 0 0 0 0 0 0 0 0 0 0 0 0 0 0 0 0 0 0 0 0 0 0 0 0 0 0 0 0 0 0 0 0 0 0 0 0 0 0 0 0 0 0
0 0 0 0 0 0 0 0 0 0 0 0 0 0 0 0 0 0 0 0 0 0 0 0 0 0 0 0 0 0 0 0 0 0 0 0 0 0 0 0 0 0 0
1 1 1 0 0 0 0 0 1 0 0 0 0 0 0 0 0 0 0 0 0 0 1 1 1 0 0 0 0 0 0 0 0 0 0 0 0 0 0 0 0 0 0
1 1 1 0 0 0 0 1 1 1 0 0 0 0 0 0 0 0 0 0 1 1 1 1 1 1 0 0 0 0 0 0 0 0 0 0 0 0 0 0 0 0 0
1 1 1 0 0 0 0 1 1 1 1 1 1 1 0 0 0 0 0 0 1 1 1 1 1 1 0 0 0 0 0 0 0 0 0 0 0 0 0 0 0 0 0
1 1 1 1 1 1 1 1 1 1 1 1 1 1 1 1 1 0 0 0 1 1 1 1 1 1 0 0 0 0 0 0 0 0 0 0 0 0 0 0 0 0 0
1 1 1 1 1 1 1 1 1 1 1 1 1 1 1 1 1 1 0 0 1 1 1 1 1 1 0 0 0 0 0 0 0 0 0 0 0 0 0 0 0 0 0
1 1 1 1 1 1 1 1 1 1 1 1 1 1 1 1 1 1 0 0 0 1 1 1 1 0 0 0 0 0 0 0 0 0 0 0 0 0 0 0 0 0 0
0 1 1 1 1 1 1 1 1 1 1 1 1 1 1 1 1 1 1 1 0 1 1 1 1 0 0 0 0 0 0 0 0 0 0 0 0 0 0 0 0 0 0
0 0 1 1 1 1 1 1 1 1 1 1 1 1 1 1 1 1 1 1 1 1 1 1 1 1 0 0 0 0 0 0 0 0 0 0 0 0 0 0 0 0 0
0 1 1 1 1 1 1 1 1 1 1 1 1 1 1 1 1 1 1 1 1 1 1 1 1 1 1 1 0 0 0 0 0 0 0 0 0 0 0 0 0 0 0
1 1 1 1 1 1 1 1 1 1 1 1 1 1 1 1 1 1 1 1 1 1 1 1 1 1 1 1 1 0 0 0 0 0 0 0 0 0 0 0 0 0 0
1 1 1 1 1 1 1 1 1 1 1 1 1 1 1 1 1 1 1 1 1 1 1 1 1 1 1 1 1 1 1 0 0 0 0 0 0 0 0 0 0 0 0
1 1 2 2 1 1 1 1 1 1 1 1 1 1 1 1 1 1 1 1 1 1 1 1 1 1 1 1 1 1 1 1 1 1 1 0 0 0 0 0 0 0 0
1 1 2 2 2 2 2 1 1 1 1 1 1 2 2 2 2 2 2 1 1 1 1 1 1 1 1 1 1 1 1 1 1 1 1 0 0 0 0 0 0 0 0
1 1 1 2 2 2 2 2 2 2 2 2 2 2 2 2 2 2 2 2 1 1 1 1 1 1 1 0 0 1 1 1 1 1 1 0 0 0 0 0 0 0 0
1 1 1 2 2 2 2 2 2 2 2 2 2 2 2 2 2 2 2 2 1 1 1 1 1 1 1 0 0 0 1 1 1 1 1 1 0 0 0 0 0 0 0
1 1 1 1 2 2 2 2 2 2 2 2 2 2 2 2 2 2 2 2 2 1 1 1 1 1 1 0 0 0 0 1 1 1 1 1 1 1 0 0 0 0 0
1 1 1 1 1 2 2 2 2 2 2 2 2 2 2 2 2 2 2 2 2 2 1 1 1 1 1 1 0 0 0 1 1 1 1 1 1 1 0 0 0 0 0
1 1 1 1 1 2 2 2 2 2 2 2 2 3 3 2 2 2 2 2 2 2 1 1 1 1 1 1 0 0 0 1 1 1 1 1 1 0 0 0 0 0 0
1 1 1 1 2 2 2 2 2 2 2 3 3 3 3 3 3 3 3 2 2 2 2 1 1 1 1 1 0 0 0 1 1 1 1 0 0 0 0 0 0 0 0
1 1 1 1 2 2 2 2 2 2 3 3 3 3 3 3 3 3 3 2 2 2 2 2 1 1 1 1 0 0 0 0 1 1 1 0 0 0 0 0 0 0 0
1 1 1 2 2 2 2 2 2 2 3 3 3 3 3 3 3 3 3 2 2 2 2 2 1 1 1 1 1 0 0 0 0 1 0 0 0 0 0 0 0 0 0
2 2 2 2 2 2 2 2 2 2 3 3 3 3 3 3 3 3 2 2 2 2 1 1 1 1 1 1 1 0 0 0 0 0 0 0 0 0 0 0 0 0 0
2 2 2 2 2 2 2 2 2 3 3 3 3 3 3 3 3 2 2 2 1 1 1 1 1 1 1 1 1 0 0 0 0 0 0 0 0 0 0 0 0 0 0
2 2 2 2 2 2 2 2 2 3 3 3 3 3 2 2 2 2 1 1 1 1 1 1 1 1 1 0 0 0 0 0 0 0 0 1 1 1 0 0 0 0 0
Wind_Speed
11 9 8 8 7 7 6 4 3 3 2 1 1 1 1 2 2 3 4 4 3 3 3 2 2 3 3 2 2 2 2 2 2 2 2 2 2 2 2 2 2 2 2
11 10 9 8 7 7 6 5 4 3 2 1 1 1 1 2 3 3 4 4 3 2 3 3 2 3 3 2 1 1 1 1 2 1 2 2 1 1 1 2 2 2 2
12 11 9 8 8 8 7 5 4 4 2 2 1 1 1 1 2 3 3 3 3 3 2 3 2 2 2 2 1 0 1 1 1 0 1 2 2 1 1 1 2 2 2
12 12 11 9 8 8 8 6 5 4 3 2 2 2 2 2 2 2 3 3 3 3 3 3 2 2 1 1 1 1 1 1 1 1 1 1 2 2 2 1 1 2 2
12 12 12 10 9 9 9 7 6 4 3 2 2 1 2 2 2 3 3 3 3 3 3 3 2 2 2 1 1 0 1 1 0 0 0 1 1 1 3 2 2 1 1
12 12 12 11 9 9 9 9 7 5 4 3 3 2 2 2 2 3 3 3 3 3 3 3 2 2 1 1 1 1 1 0 1 0 0 1 1 1 2 2 2 2 1
12 12 12 12 10 10 9 9 9 6 5 4 3 3 3 2 2 2 2 2 2 3 2 3 2 2 1 2 1 2 1 1 1 1 1 0 0 1 1 2 2 2 1
11 12 12 12 11 11 10 10 9 7 6 5 4 3 3 3 2 2 1 2 2 3 3 4 3 2 2 1 1 1 2 1 2 1 0 0 0 0 1 2 2 2 1
12 12 12 12 11 11 10 10 10 8 7 6 5 3 3 2 2 2 2 2 2 3 3 4 3 2 2 1 1 1 1 1 1 1 1 1 1 1 1 1 1 2 2
11 12 11 11 10 10 10 10 10 9 7 7 6 6 4 3 2 2 2 2 2 2 2 3 3 2 2 2 1 1 1 1 1 1 1 1 1 1 1 1 1 1 2
10 10 10 10 10 10 10 9 9 9 8 7 6 5 5 5 4 3 3 3 2 2 2 2 2 2 2 2 1 2 1 1 1 1 1 1 1 0 0 1 1 1 2
8 9 10 10 9 9 9 8 8 7 7 7 6 6 5 5 5 4 4 3 3 3 3 2 2 2 2 2 2 2 2 1 1 1 0 1 1 1 0 0 0 1 2
6 7 8 7 8 8 7 7 7 7 7 7 7 6 5 5 4 4 4 4 4 3 3 3 2 2 2 2 2 2 1 1 2 1 1 1 1 1 1 1 1 1 1
6 6 7 6 6 6 6 6 6 7 7 6 6 6 6 5 5 4 4 4 4 4 3 3 2 2 2 2 2 2 1 1 1 1 1 1 2 2 2 2 2 1 2
5 6 6 5 5 5 5 5 5 5 5 5 5 5 5 5 5 5 4 4 4 5 4 3 3 3 3 2 2 2 3 2 2 2 1 2 3 3 2 1 1 2 2
3 5 6 6 5 4 4 4 4 4 5 4 4 4 5 5 5 5 5 4 4 4 3 3 3 3 3 2 2 2 2 2 2 2 2 3 3 4 4 4 3 2 2
3 4 4 5 4 5 4 4 4 4 5 5 5 5 5 5 5 6 5 5 4 4 4 4 3 3 2 3 3 2 2 2 2 2 2 2 3 4 4 4 3 2 2
3 3 3 3 4 4 4 4 4 4 4 5 5 5 5 5 5 5 5 5 4 4 4 4 4 3 3 4 3 3 3 2 2 2 3 3 2 2 3 3 3 3 1
2 2 2 3 3 3 3 3 4 4 5 5 5 5 5 5 5 5 5 4 4 4 4 4 4 4 3 5 5 4 3 3 3 2 2 3 3 3 3 3 3 3 2
2 1 1 2 2 2 3 3 4 4 4 4 4 5 5 5 6 6 5 5 4 5 5 4 4 4 4 5 6 5 4 3 3 2 2 2 3 4 3 3 4 4 3
1 1 1 1 1 1 1 2 3 3 3 2 2 3 4 4 5 5 4 4 5 5 5 4 4 4 5 6 6 6 3 3 3 3 3 2 5 4 4 3 3 4 3
1 1 1 1 1 1 1 2 3 2 2 2 3 4 4 5 5 4 4 5 5 5 5 5 5 4 5 6 6 7 6 3 2 2 2 3 5 5 5 4 4 4 3
2 1 0 0 1 2 2 3 2 1 2 3 3 4 5 4 4 5 5 5 5 5 5 5 5 4 4 5 7 8 7 5 2 1 2 4 4 5 4 5 5 4 3
2 2 1 1 1 2 2 2 2 2 2 3 3 3 4 5 4 4 4 5 5 5 4 4 4 3 3 4 4 4 4 5 4 2 2 4 5 4 3 4 4 4 4
2 2 1 1 2 1 2 2 2 2 3 2 2 3 4 4 3 4 3 4 4 4 5 4 4 4 4 5 7 6 5 4 4 3 3 3 4 4 4 4 4 4 4
1 2 2 2 2 2 2 2 2 2 3 3 3 3 3 3 4 3 2 0 3 5 7 5 3 3 4 7 8 7 6 6 6 5 5 5 5 6 5 5 5 5 4
Wind_Direction
151 151 153 141 132 122 119 114 107 97 88 80 111 123 120 120 120 115 113 116 114 113 112 95 103 96 95 86 108 119 140 142 133 117 110 104 111 114 119 123 107 117 124
151 150 150 144 135 128 125 125 128 122 119 125 140 130 108 117 109 104 109 107 115 121 123 120 115 108 114 111 106 129 158 149 145 142 135 124 86 54 130 132 136 127 117
157 153 155 154 149 145 144 143 134 128 134 147 132 98 99 77 87 104 105 101 107 114 103 107 108 118 137 136 144 165 181 172 180 141 119 133 144 142 90 124 110 116 108
156 157 160 160 157 151 147 135 134 133 135 150 145 145 128 119 114 108 107 112 113 110 112 115 120 117 107 122 196 104 287 209 191 157 141 128 126 138 132 99 120 128 114
160 160 162 161 162 155 148 143 138 136 136 141 131 144 120 121 116 116 120 123 127 125 123 124 129 131 133 137 129 35 343 308 271 165 143 137 151 143 138 150 150 120 121
159 158 158 157 159 156 151 147 142 142 147 152 139 122 113 107 117 131 144 152 138 132 133 130 123 125 143 164 180 209 204 271 312 294 138 157 163 152 138 133 146 134 113
157 157 156 157 160 159 155 147 146 151 158 155 147 138 136 140 158 165 158 148 135 131 132 120 120 133 164 169 177 173 207 239 242 249 250 251 260 140 123 124 134 123 124
156 158 158 159 163 160 155 151 149 155 160 159 155 146 156 185 178 163 155 131 124 126 130 131 140 153 165 160 178 173 200 207 232 246 240 206 206 171 134 139 139 129 119
157 158 161 163 163 161 159 159 154 156 160 162 156 157 168 179 129 130 143 118 121 135 131 140 141 142 143 153 153 154 187 172 184 210 211 207 204 148 144 135 149 154 157
156 156 157 158 158 157 156 156 158 159 161 165 172 168 170 164 151 147 123 115 103 100 120 127 137 142 141 145 145 134 144 148 162 166 162 222 162 138 126 121 154 138 136
157 155 156 157 157 157 157 155 157 160 167 172 174 163 165 168 166 169 151 138 132 141 144 138 146 149 144 137 145 153 159 161 158 180 171 178 150 98 122 158 160 138 129
152 151 152 154 156 157 155 154 157 164 169 167 167 169 164 167 173 171 163 160 159 164 158 153 158 159 148 159 176 181 173 163 147 134 132 192 167 156 216 174 106 137 147
134 140 138 143 149 152 150 153 157 165 170 167 173 167 166 171 175 164 162 166 164 163 164 167 170 169 168 177 177 179 175 167 163 156 175 197 178 188 201 178 165 186 152
125 127 130 134 136 141 147 153 160 167 165 163 175 167 170 175 175 169 168 171 168 171 173 176 178 190 192 193 187 174 173 158 150 144 141 181 178 182 194 176 169 164 145
134 127 127 130 135 140 144 154 164 164 160 159 168 160 167 170 172 172 173 174 177 182 178 184 189 201 206 208 196 196 180 165 149 135 122 100 101 94 103 138 131 152 157
125 135 135 134 139 141 147 156 163 163 158 165 168 164 169 174 174 173 172 177 181 179 185 193 194 211 217 169 167 184 181 168 162 154 140 137 123 119 121 114 101 121 165
137 133 142 149 156 158 159 167 170 168 170 177 178 176 177 178 177 182 176 181 185 184 190 197 194 198 202 180 170 185 203 178 172 167 165 185 150 145 140 135 133 116 135
131 139 153 155 156 163 166 175 184 180 182 183 180 177 179 179 177 182 183 183 184 191 199 202 194 197 200 183 181 193 205 196 193 177 166 161 162 157 143 165 152 149 149
119 132 168 178 162 164 158 166 190 195 194 192 186 185 187 187 186 191 190 186 190 196 201 197 194 197 188 186 190 194 196 197 204 191 176 175 167 159 160 168 156 152 147
106 148 193 177 160 160 158 171 200 202 205 204 195 190 191 196 198 195 191 191 195 201 202 199 195 196 189 186 189 192 210 200 192 182 171 151 156 160 173 182 175 181 174
108 111 118 153 151 152 163 206 215 216 208 201 193 185 189 199 202 197 194 195 200 204 204 198 196 195 187 179 185 189 215 213 200 195 184 166 163 171 186 195 193 193 181
122 136 99 106 143 167 194 229 241 224 200 191 197 195 195 208 206 192 199 205 206 201 200 200 198 193 186 181 184 188 203 231 220 194 167 153 168 182 192 200 201 191 193
346 341 279 232 205 202 206 235 254 238 211 205 208 205 206 209 201 197 199 202 202 205 206 204 201 195 185 173 176 181 194 205 207 207 172 164 174 177 190 208 208 204 214
330 313 289 270 264 244 228 229 253 232 220 220 222 218 207 208 201 196 200 204 203 206 203 202 202 195 184 168 168 177 186 189 194 199 175 180 192 197 195 193 207 217 225
310 310 308 295 282 280 269 252 241 225 224 216 219 228 226 216 204 205 215 220 210 203 202 209 202 198 201 189 179 179 189 195 182 174 196 204 193 198 202 204 208 213 217
323 313 300 285 271 257 256 241 212 205 210 223 218 230 232 216 210 206 199 182 227 199 197 205 208 201 181 161 158 161 165 174 172 182 203 211 212 210 207 205 207 211 214